Location: Newsoms
(36.6240°N, 77.1250°W)
Time: 05:31:19
(UTC-05:00)

Daily predictions for brighter satellites

Satellite Brightness Start Highest point End
(mag) Time Altitude Azimuth Time Altitude Azimuth Time Altitude Azimuth
Lacrosse 5 4.1 03:55:31 22° E 03:55:31 22° E 03:58:24 10° ENE
SL-16 R/B 4.2 04:40:07 15° N 04:40:07 15° N 04:41:07 10° N
H-2A ROCKET BODY 4.1 04:35:49 30° SSW 04:38:15 35° S 05:01:01 10° SE
Cosmos 2074 Rocket 4.1 04:36:54 10° S 04:43:09 77° E 04:49:25 10° N
OAO 3 Copernicus 4.5 04:46:22 68° SE 04:46:22 68° SE 04:50:57 10° E
Thor Agena Rocket 3.9 04:41:29 10° SSE 04:45:15 52° S 04:45:15 52° S
Meteor 1-25 Rocket 4.1 04:47:23 10° SSW 04:53:12 74° W 04:59:02 10° N
Cosmos 2056 Rocket 4.3 04:53:33 23° N 04:56:27 46° ENE 05:01:21 10° SE
Okean 1 3.6 05:00:04 65° SE 05:00:04 65° SE 05:03:39 10° SSE
Cosmos 2184 Rocket 3.8 04:54:04 10° S 05:00:13 81° W 05:06:27 10° N
CZ-3 R/B 3.4 04:52:17 10° SW 05:06:15 31° S 05:11:07 10° ESE
Abrixas rocket 3.7 05:10:24 31° NE 05:10:24 31° NE 05:12:21 10° NE
Cosmos 1624 Rocket 4.2 05:06:56 25° N 05:10:05 70° ENE 05:15:23 10° SSE
Ariane Rocket 4.1 05:06:35 10° NNE 05:11:26 44° E 05:16:14 10° S
Cosmos 1346 Rocket 2.6 05:11:33 80° NNE 05:11:43 86° ENE 05:15:40 10° S
USA 215 3.1 05:05:35 10° NE 05:12:06 76° NW 05:16:25 23° SW
Cosmos 1371 Rocket 3.9 05:12:43 34° NNW 05:15:06 84° WSW 05:20:20 10° SSE
Cosmos 2154 Rocket 4.3 05:09:53 10° S 05:16:02 68° E 05:22:12 10° NNE
Cosmos 1238 Rocket 3.7 05:15:35 46° WNW 05:16:35 53° W 05:22:24 10° SSW
USA 32 3.9 05:15:03 33° NNW 05:17:17 61° W 05:22:26 10° S
SJ-6F 4.2 05:17:03 10° N 05:21:06 68° WNW 05:25:07 10° SSW
Cosmos 1536 Rocket 3.7 05:24:38 50° W 05:24:48 50° W 05:29:02 10° SSW
CENTAUR R/B 4.1 05:27:39 17° NNW 05:27:39 17° NNW 05:31:29 10° N
PSLV R/B 3.1 05:30:05 68° NW 05:30:24 77° NNE 05:33:47 10° ESE
Cosmos 1603 4.0 05:28:48 13° SW 05:33:31 44° WNW 05:38:55 10° N
Cosmos 921 Rocket 3.6 05:34:12 36° W 05:34:18 36° W 05:38:25 10° SSW
Cosmos 44 Rocket 3.4 05:30:02 13° SW 05:34:38 58° WNW 05:39:41 10° NNE
Cosmos 2369 Rocket 2.9 05:29:21 10° NNW 05:34:57 53° ENE 05:40:30 10° SE
Lacrosse 5 2.0 05:34:49 30° WSW 05:37:03 50° NW 05:42:01 10° NNE
Cosmos 1610 Rocket 4.5 05:31:06 10° SSW 05:37:09 58° W 05:43:18 10° N
Cosmos 192 4.4 05:36:06 10° SW 05:40:51 50° WNW 05:45:38 10° N
Okean 1 Rocket 3.0 05:38:30 10° SSW 05:42:50 59° W 05:47:11 10° N
Cosmos 1536 2.8 05:39:22 10° S 05:43:20 86° E 05:47:22 10° N
CZ-4 R/B 3.4 05:40:16 10° NE 05:43:44 29° E 05:47:09 10° SSE
Kosmos-1675 3.6 05:41:40 10° SSW 05:43:58 71° ESE 05:51:18 10° NNE
Cosmos 1452 Rocket 4.2 05:40:37 10° N 05:45:48 55° ENE 05:50:58 10° SSE
COSMO-SKYMED 1 2.6 05:45:02 10° S 05:49:15 54° W 05:53:19 11° NNW
Cosmos 1943 3.1 05:51:59 10° SSW 05:57:32 62° WNW 06:03:08 10° NNE
Lacrosse 4 Rocket 3.9 06:00:05 10° N 06:02:51 17° NE 06:05:35 10° E
Okean 1-7 Rocket 3.7 06:00:14 10° NNW 06:04:30 52° W 06:08:44 10° S
Cosmos 1295 Rocket 4.5 06:05:16 10° SSW 06:11:34 75° W 06:17:50 10° N
Cosmos 1892 Rocket 4.1 06:08:11 10° N 06:12:37 63° E 06:17:03 10° SSE
Nadezhda 3 Rocket 4.3 06:06:36 10° NNW 06:12:42 49° W 06:18:45 10° SSW
Tiangong 2 2.2 06:12:41 16° NW 06:14:45 32° NNE 06:17:38 10° ENE
Cosmos 1633 3.8 06:12:11 10° SW 06:14:59 21° WNW 06:17:48 10° NNW
Cosmos 1943 Rocket 2.9 06:11:45 10° NNW 06:17:09 54° ENE 06:22:31 10° SE
GRACE-2 3.7 06:16:30 10° N 06:19:16 72° W 06:22:02 10° S
GRACE-1 3.7 06:16:56 10° N 06:19:42 69° W 06:22:27 10° S
Cosmos 1269 Rocket 4.1 06:16:18 10° SSW 06:21:35 90° SE 06:26:55 10° NNE
PAYLOAD A 4.1 06:16:44 10° N 06:22:08 79° WNW 06:27:34 10° SSW
GPS 2-05 Rocket1 4.4 06:19:59 10° W 06:23:01 27° SSW 06:26:07 10° SE
USA 229 DEB 3.7 06:18:09 10° SW 06:24:59 68° NW 06:31:55 10° NNE
USA 229 3.7 06:18:15 10° SW 06:25:05 68° NW 06:32:01 10° NNE
Helios 1B rocket 3.1 06:21:39 10° SSE 06:25:43 58° ENE 06:29:47 10° N
Cosmos 1975 4.0 06:23:47 10° SSE 06:27:43 49° E 06:31:41 10° NNE
DELTA 2 R/B(2) 4.1 06:25:43 12° WNW 06:27:49 34° N 06:29:25 10° ENE
Cosmos 44 4.2 06:28:58 10° WSW 06:33:44 32° NW 06:38:23 10° N
Cosmos 1727 Rocket 4.4 06:27:45 10° N 06:33:56 68° E 06:40:06 10° SSE
Cosmos 1455 Rocket 3.0 06:31:03 10° S 06:35:21 82° W 06:39:43 10° N
Cosmos 1461 3.7 06:32:03 10° SSW 06:36:20 58° ESE 06:40:28 10° NE
SMAP 3.1 06:32:55 10° N 06:37:36 83° WNW 06:42:14 10° SSW
Cosmos 1500 4.2 06:35:23 10° S 06:39:01 51° E 06:42:41 10° NNE
Cosmos 1420 Rocket 4.0 06:34:48 10° NNW 06:40:03 80° WSW 06:45:15 10° SSE
Cosmos 2263 4.3 06:36:59 10° NNW 06:42:29 57° WSW 06:47:55 10° S
